OK,45,61,1054,45,2014-10-01T01:40:00,0,28072824,182875
OK,43,64,1054,43,2014-10-01T01:45:00,1,28073271,182875
OK,43,64,1054,43,2014-10-01T01:50:00,1,28073719,182875
OK,43,64,1054,43,2014-10-01T01:55:00,0,28074037,182875
OK,43,64,1054,43,2014-10-01T02:05:00,0,28074926,182875
OK,43,64,1054,43,2014-10-01T02:10:00,0,28075375,182875
OK,47,58,1054,47,2014-10-01T02:15:00,0,28075824,182875
OK,47,58,1054,47,2014-10-01T02:20:00,0,28076207,182875
OK,35,79,1054,35,2014-10-01T02:25:00,1,28076656,182875
OK,35,79,1054,35,2014-10-01T02:30:00,0,28077105,182875
OK,35,79,1054,35,2014-10-01T02:35:00,0,28077554,182875
OK,35,79,1054,35,2014-10-01T02:40:00,0,28077957,182875
OK,35,79,1054,35,2014-10-01T02:45:00,0,28078406,182875
OK,35,79,1054,35,2014-10-01T02:50:00,0,28078851,182875
OK,35,79,1054,35,2014-10-01T02:55:00,0,28079299,182875
OK,35,79,1054,35,2014-10-01T03:00:00,0,28079742,182875
OK,35,79,1054,35,2014-10-01T03:05:00,0,28080191,182875
OK,35,79,1054,35,2014-10-01T03:10:00,0,28080525,182875
OK,44,62,1054,44,2014-10-01T03:15:00,1,28080974,182875
OK,37,74,1054,37,2014-10-01T03:20:00,1,28081423,182875
OK,34,81,1054,34,2014-10-01T03:25:00,2,28081870,182875
OK,33,83,1054,33,2014-10-01T03:30:00,1,28082319,182875
OK,33,83,1054,33,2014-10-01T03:35:00,3,28082752,182875
OK,35,79,1054,35,2014-10-01T03:40:00,3,28083184,182875
OK,34,81,1054,34,2014-10-01T03:45:00,2,28083633,182875
OK,34,81,1054,34,2014-10-01T03:50:00,3,28084082,182875
OK,35,79,1054,35,2014-10-01T03:55:00,3,28084523,182875
OK,38,72,1054,38,2014-10-01T04:00:00,4,28084948,182875
OK,38,72,1054,38,2014-10-01T04:05:00,3,28085397,182875
OK,31,89,1054,31,2014-10-01T04:10:00,3,28085842,182875
OK,41,67,1054,41,2014-10-01T04:15:00,7,28086291,182875
OK,44,62,1054,44,2014-10-01T04:20:00,7,28086733,182875
OK,40,69,1054,40,2014-10-01T04:25:00,7,28087182,182875
OK,40,69,1054,40,2014-10-01T04:30:00,10,28087627,182875
OK,41,67,1054,41,2014-10-01T04:35:00,11,28088076,182875
OK,41,67,1054,41,2014-10-01T04:40:00,14,28088500,182875
OK,41,67,1054,41,2014-10-01T04:45:00,18,28088949,182875
OK,46,60,1054,46,2014-10-01T04:50:00,21,28089379,182875
OK,55,50,1054,55,2014-10-01T05:00:00,16,28090277,182875
OK,56,49,1054,56,2014-10-01T05:05:00,27,28090621,182875
OK,57,48,1054,57,2014-10-01T05:10:00,22,28091070,182875
OK,54,51,1054,54,2014-10-01T05:15:00,22,28091519,182875
OK,54,51,1054,54,2014-10-01T05:20:00,17,28091936,182875
OK,61,45,1054,61,2014-10-01T05:25:00,18,28092385,182875
OK,89,31,1054,89,2014-10-01T05:30:00,27,28092829,182875
OK,105,26,1054,105,2014-10-01T05:35:00,31,28093270,182875
OK,118,23,1054,118,2014-10-01T05:40:00,23,28093701,182875
OK,184,15,1054,184,2014-10-01T05:45:00,30,28094150,182875
OK,196,14,1054,196,2014-10-01T05:50:00,38,28094561,182875
OK,198,13,1054,198,2014-10-01T05:55:00,27,28095006,182875
OK,176,15,1054,176,2014-10-01T06:00:00,22,28095453,182875
OK,158,17,1054,158,2014-10-01T06:05:00,24,28095902,182875
OK,136,20,1054,136,2014-10-01T06:10:00,29,28096315,182875
OK,121,22,1054,121,2014-10-01T06:15:00,29,28096764,182875
OK,139,19,1054,139,2014-10-01T06:20:00,25,28097198,182875
OK,151,18,1054,151,2014-10-01T06:25:00,33,28097647,182875
OK,108,25,1054,108,2014-10-01T06:30:00,34,28098096,182875
OK,69,40,1054,69,2014-10-01T06:35:00,32,28098533,182875
OK,57,48,1054,57,2014-10-01T06:40:00,25,28098977,182875
OK,55,50,1054,55,2014-10-01T06:45:00,27,28099425,182875
OK,48,57,1054,48,2014-10-01T06:50:00,19,28099768,182875
OK,40,69,1054,40,2014-10-01T06:55:00,11,28100217,182875
OK,47,58,1054,47,2014-10-01T07:00:00,9,28100524,182875
OK,45,61,1054,45,2014-10-01T07:10:00,12,28101344,182875
OK,40,69,1054,40,2014-10-01T07:20:00,11,28102229,182875
OK,51,54,1054,51,2014-10-01T07:25:00,13,28102678,182875
OK,53,52,1054,53,2014-10-01T07:30:00,14,28103106,182875
OK,42,65,1054,42,2014-10-01T07:35:00,13,28103552,182875
OK,45,61,1054,45,2014-10-01T07:40:00,14,28103997,182875
OK,55,50,1054,55,2014-10-01T07:45:00,10,28104442,182875
OK,44,62,1054,44,2014-10-01T07:50:00,10,28104883,182875
OK,43,64,1054,43,2014-10-01T07:55:00,12,28105328,182875
OK,63,43,1054,63,2014-10-01T08:00:00,13,28105768,182875
OK,60,46,1054,60,2014-10-01T08:05:00,11,28106217,182875
OK,47,58,1054,47,2014-10-01T08:10:00,9,28106654,182875
OK,50,55,1054,50,2014-10-01T08:15:00,11,28107060,182875
OK,47,58,1054,47,2014-10-01T08:20:00,15,28107492,182875
OK,47,58,1054,47,2014-10-01T08:25:00,15,28107941,182875
OK,54,51,1054,54,2014-10-01T08:30:00,10,28108380,182875
OK,39,70,1054,39,2014-10-01T08:35:00,11,28108829,182875
OK,38,72,1054,38,2014-10-01T08:40:00,10,28109257,182875
OK,45,61,1054,45,2014-10-01T08:45:00,7,28109706,182875
OK,47,58,1054,47,2014-10-01T08:50:00,10,28110049,182875
OK,56,49,1054,56,2014-10-01T09:00:00,17,28110921,182875
OK,42,65,1054,42,2014-10-01T09:05:00,14,28111370,182875
OK,39,70,1054,39,2014-10-01T09:10:00,8,28111799,182875
OK,41,67,1054,41,2014-10-01T09:15:00,6,28112248,182875
OK,41,67,1054,41,2014-10-01T09:20:00,10,28112589,182875
OK,46,60,1054,46,2014-10-01T09:30:00,8,28113462,182875
OK,60,46,1054,60,2014-10-01T09:35:00,4,28113911,182875
OK,58,47,1054,58,2014-10-01T09:40:00,6,28114343,182875
OK,66,41,1054,66,2014-10-01T09:45:00,5,28114792,182875
OK,61,45,1054,61,2014-10-01T09:50:00,9,28115146,182875
OK,53,52,1054,53,2014-10-01T10:00:00,10,28116007,182875
OK,47,58,1054,47,2014-10-01T10:05:00,6,28116456,182875
OK,38,72,1054,38,2014-10-01T10:10:00,9,28116864,182875
OK,47,58,1054,47,2014-10-01T10:15:00,9,28117313,182875
OK,56,49,1054,56,2014-10-01T10:20:00,9,28117738,182875
OK,43,64,1054,43,2014-10-01T10:25:00,16,28118187,182875
OK,44,62,1054,44,2014-10-01T10:30:00,17,28118632,182875
OK,47,58,1054,47,2014-10-01T10:35:00,11,28119079,182875
OK,50,55,1054,50,2014-10-01T10:40:00,11,28119523,182875
OK,50,55,1054,50,2014-10-01T10:45:00,9,28119971,182875
OK,49,56,1054,49,2014-10-01T10:50:00,10,28120419,182875
OK,55,50,1054,55,2014-10-01T10:55:00,11,28120868,182875
OK,50,55,1054,50,2014-10-01T11:00:00,19,28121251,182875
OK,43,64,1054,43,2014-10-01T11:05:00,21,28121700,182875
OK,42,65,1054,42,2014-10-01T11:10:00,17,28122138,182875
OK,42,65,1054,42,2014-10-01T11:15:00,16,28122587,182875
OK,42,65,1054,42,2014-10-01T11:20:00,13,28123028,182875
OK,47,58,1054,47,2014-10-01T11:25:00,12,28123477,182875
OK,44,62,1054,44,2014-10-01T11:30:00,12,28123909,182875
OK,42,65,1054,42,2014-10-01T11:35:00,15,28124358,182875
OK,49,56,1054,49,2014-10-01T11:40:00,14,28124760,182875
OK,57,48,1054,57,2014-10-01T11:45:00,13,28125209,182875
OK,47,58,1054,47,2014-10-01T11:50:00,13,28125638,182875
OK,58,47,1054,58,2014-10-01T11:55:00,13,28126087,182875
OK,65,42,1054,65,2014-10-01T12:00:00,8,28126439,182875
OK,37,74,1054,37,2014-10-01T12:10:00,8,28127337,182875
OK,39,70,1054,39,2014-10-01T12:15:00,6,28127786,182875
OK,41,67,1054,41,2014-10-01T12:20:00,7,28128214,182875
OK,47,58,1054,47,2014-10-01T12:25:00,10,28128663,182875
OK,50,55,1054,50,2014-10-01T12:30:00,13,28129098,182875
OK,53,52,1054,53,2014-10-01T12:35:00,6,28129547,182875
OK,54,51,1054,54,2014-10-01T12:40:00,3,28129981,182875
OK,61,45,1054,61,2014-10-01T12:45:00,5,28130430,182875
OK,61,45,1054,61,2014-10-01T12:50:00,15,28130858,182875
OK,56,49,1054,56,2014-10-01T12:55:00,12,28131307,182875
OK,43,64,1054,43,2014-10-01T13:00:00,7,28131744,182875
OK,59,46,1054,59,2014-10-01T13:05:00,13,28132193,182875
OK,49,56,1054,49,2014-10-01T13:10:00,14,28132631,182875
OK,55,50,1054,55,2014-10-01T13:15:00,16,28133078,182875
OK,51,54,1054,51,2014-10-01T13:20:00,20,28133516,182875
OK,50,55,1054,50,2014-10-01T13:25:00,22,28133965,182875
OK,52,53,1054,52,2014-10-01T13:30:00,12,28134404,182875
OK,51,54,1054,51,2014-10-01T13:35:00,10,28134853,182875
OK,51,54,1054,51,2014-10-01T13:40:00,9,28135272,182875
OK,52,53,1054,52,2014-10-01T13:45:00,9,28135721,182875
OK,68,40,1054,68,2014-10-01T13:50:00,8,28136158,182875
OK,57,48,1054,57,2014-10-01T13:55:00,11,28136607,182875
OK,55,50,1054,55,2014-10-01T14:00:00,11,28137047,182875
OK,59,46,1054,59,2014-10-01T14:05:00,9,28137496,182875
OK,43,64,1054,43,2014-10-01T14:10:00,12,28137930,182875
OK,43,64,1054,43,2014-10-01T14:15:00,6,28138379,182875
OK,51,54,1054,51,2014-10-01T14:20:00,10,28138807,182875
OK,61,45,1054,61,2014-10-01T14:25:00,17,28139256,182875
OK,61,45,1054,61,2014-10-01T14:30:00,11,28139667,182875
OK,49,56,1054,49,2014-10-01T14:35:00,13,28140116,182875
OK,52,53,1054,52,2014-10-01T14:40:00,18,28140558,182875
OK,50,55,1054,50,2014-10-01T14:45:00,19,28141007,182875
OK,54,51,1054,54,2014-10-01T14:50:00,3,28141433,182875
OK,59,46,1054,59,2014-10-01T14:55:00,13,28141882,182875
OK,46,60,1054,46,2014-10-01T15:00:00,10,28142310,182875
OK,46,60,1054,46,2014-10-01T15:05:00,13,28142759,182875
OK,44,62,1054,44,2014-10-01T15:10:00,14,28143186,182875
OK,44,62,1054,44,2014-10-01T15:15:00,11,28143635,182875
OK,56,49,1054,56,2014-10-01T15:20:00,12,28144083,182875
OK,54,51,1054,54,2014-10-01T15:25:00,19,28144532,182875
OK,54,51,1054,54,2014-10-01T15:30:00,18,28144953,182875
OK,54,51,1054,54,2014-10-01T15:35:00,11,28145367,182875
OK,40,69,1054,40,2014-10-01T15:40:00,11,28145816,182875
OK,55,50,1054,55,2014-10-01T15:45:00,11,28146265,182875
OK,56,49,1054,56,2014-10-01T15:50:00,14,28146714,182875
OK,48,57,1054,48,2014-10-01T15:55:00,10,28147122,182875
OK,48,57,1054,48,2014-10-01T16:00:00,5,28147566,182875
OK,48,57,1054,48,2014-10-01T16:05:00,7,28148015,182875
OK,42,65,1054,42,2014-10-01T16:10:00,8,28148416,182875
OK,61,45,1054,61,2014-10-01T16:20:00,2,28149304,182875
OK,56,49,1054,56,2014-10-01T16:25:00,3,28149753,182875
OK,46,60,1054,46,2014-10-01T16:30:00,5,28150179,182875
OK,57,48,1054,57,2014-10-01T16:35:00,8,28150628,182875
OK,59,46,1054,59,2014-10-01T16:40:00,7,28151046,182875
OK,62,44,1054,62,2014-10-01T16:45:00,4,28151495,182875
OK,57,48,1054,57,2014-10-01T16:50:00,9,28151944,182875
OK,45,61,1054,45,2014-10-01T17:00:00,5,28152393,182875
OK,46,60,1054,46,2014-10-01T17:05:00,7,28152839,182875
OK,63,43,1054,63,2014-10-01T17:10:00,5,28153286,182875
OK,59,46,1054,59,2014-10-01T17:15:00,6,28153735,182875
OK,52,53,1054,52,2014-10-01T17:20:00,4,28154145,182875
OK,46,60,1054,46,2014-10-01T17:25:00,5,28154594,182875
OK,52,53,1054,52,2014-10-01T17:30:00,1,28155036,182875
OK,47,58,1054,47,2014-10-01T17:35:00,2,28155484,182875
OK,37,74,1054,37,2014-10-01T17:40:00,3,28155902,182875
OK,51,54,1054,51,2014-10-01T17:45:00,2,28156351,182875
OK,42,65,1054,42,2014-10-01T17:50:00,3,28156799,182875
OK,42,65,1054,42,2014-10-01T17:55:00,3,28157238,182875
OK,40,69,1054,40,2014-10-01T18:00:00,0,28157668,182875
OK,52,53,1054,52,2014-10-01T18:05:00,2,28158116,182875
OK,52,53,1054,52,2014-10-01T18:10:00,2,28158560,182875
OK,52,53,1054,52,2014-10-01T18:15:00,0,28159006,182875
OK,39,70,1054,39,2014-10-01T18:20:00,1,28159452,182875
OK,41,67,1054,41,2014-10-01T18:25:00,4,28159787,182875
OK,37,74,1054,37,2014-10-01T18:35:00,3,28160685,182875
OK,37,74,1054,37,2014-10-01T18:40:00,3,28161123,182875
OK,38,72,1054,38,2014-10-01T18:45:00,1,28161572,182875
OK,36,76,1054,36,2014-10-01T18:50:00,2,28161989,182875
OK,31,89,1054,31,2014-10-01T18:55:00,2,28162438,182875
OK,35,79,1054,35,2014-10-01T19:00:00,4,28162832,182875
OK,41,67,1054,41,2014-10-01T19:05:00,3,28163271,182875
OK,41,67,1054,41,2014-10-01T19:10:00,1,28163719,182875
OK,42,65,1054,42,2014-10-01T19:15:00,3,28164168,182875
OK,40,69,1054,40,2014-10-01T19:20:00,7,28164599,182875
OK,33,83,1054,33,2014-10-01T19:25:00,6,28165048,182875
OK,39,70,1054,39,2014-10-01T19:30:00,5,28165473,182875
OK,54,51,1054,54,2014-10-01T19:35:00,4,28165921,182875
OK,34,81,1054,34,2014-10-01T19:40:00,2,28166362,182875
OK,37,74,1054,37,2014-10-01T19:45:00,3,28166724,182875
OK,38,72,1054,38,2014-10-01T19:50:00,3,28167173,182875
OK,38,72,1054,38,2014-10-01T19:55:00,5,28167602,182875
OK,36,76,1054,36,2014-10-01T20:00:00,2,28168035,182875
OK,38,72,1054,38,2014-10-01T20:05:00,4,28168484,182875
OK,40,69,1054,40,2014-10-01T20:10:00,6,28168929,182875
OK,38,72,1054,38,2014-10-01T20:15:00,5,28169378,182875
OK,36,76,1054,36,2014-10-01T20:20:00,4,28169826,182875
OK,54,51,1054,54,2014-10-01T20:25:00,2,28170252,182875
OK,46,60,1054,46,2014-10-01T20:30:00,2,28170697,182875
OK,31,89,1054,31,2014-10-01T20:35:00,0,28171145,182875
OK,31,89,1054,31,2014-10-01T20:40:00,0,28171582,182875
OK,41,67,1054,41,2014-10-01T20:45:00,1,28172028,182875
OK,39,70,1054,39,2014-10-01T20:50:00,1,28172476,182875
OK,39,70,1054,39,2014-10-01T20:55:00,1,28172922,182875
OK,37,74,1054,37,2014-10-01T21:00:00,2,28173368,182875
OK,39,70,1054,39,2014-10-01T21:05:00,1,28173817,182875
OK,32,86,1054,32,2014-10-01T21:10:00,1,28174258,182875
OK,32,86,1054,32,2014-10-01T21:15:00,0,28174707,182875
OK,32,86,1054,32,2014-10-01T21:20:00,0,28175133,182875
OK,34,81,1054,34,2014-10-01T21:25:00,1,28175529,182875
OK,34,81,1054,34,2014-10-01T21:30:00,1,28175978,182875
OK,34,81,1054,34,2014-10-01T21:35:00,0,28176427,182875
OK,34,81,1054,34,2014-10-01T21:40:00,0,28176876,182875
OK,34,81,1054,34,2014-10-01T21:45:00,0,28177232,182875
OK,34,81,1054,34,2014-10-01T21:50:00,0,28177672,182875
OK,34,81,1054,34,2014-10-01T21:55:00,0,28178118,182875
OK,34,81,1054,34,2014-10-01T22:00:00,0,28178567,182875
OK,34,81,1054,34,2014-10-01T22:05:00,0,28179014,182875
OK,34,81,1054,34,2014-10-01T22:10:00,0,28179448,182875
OK,34,81,1054,34,2014-10-01T22:15:00,0,28179891,182875
OK,58,47,1054,58,2014-10-01T22:20:00,2,28180338,182875
OK,58,47,1054,58,2014-10-01T22:25:00,2,28180736,182875
OK,58,47,1054,58,2014-10-01T22:30:00,0,28181185,182875
OK,58,47,1054,58,2014-10-01T22:35:00,0,28181609,182875
OK,58,47,1054,58,2014-10-01T22:40:00,0,28182057,182875
OK,58,47,1054,58,2014-10-01T22:45:00,0,28182504,182875
OK,42,65,1054,42,2014-10-01T22:50:00,1,28182953,182875
OK,42,65,1054,42,2014-10-01T22:55:00,1,28183370,182875
OK,42,65,1054,42,2014-10-01T23:00:00,0,28183803,182875
OK,42,65,1054,42,2014-10-01T23:05:00,0,28184248,182875
OK,42,65,1054,42,2014-10-01T23:10:00,0,28184697,182875
OK,42,65,1054,42,2014-10-01T23:15:00,0,28185132,182875
OK,42,65,1054,42,2014-10-01T23:20:00,0,28185580,182875
OK,42,65,1054,42,2014-10-01T23:25:00,0,28186011,182875
OK,42,65,1054,42,2014-10-01T23:30:00,0,28186403,182875
OK,29,95,1054,29,2014-10-01T23:40:00,0,28187250,182875
OK,29,95,1054,29,2014-10-01T23:55:00,0,28188582,182875
OK,29,95,1054,29,2014-10-02T00:05:00,0,28189467,182875
OK,29,95,1054,29,2014-10-02T00:10:00,0,28189889,182875
OK,29,95,1054,29,2014-10-02T00:15:00,0,28190338,182875
OK,29,95,1054,29,2014-10-02T00:20:00,0,28190691,182875
OK,29,95,1054,29,2014-10-02T00:30:00,0,28191589,182875
OK,29,95,1054,29,2014-10-02T00:35:00,0,28191895,182875
OK,29,95,1054,29,2014-10-02T00:45:00,0,28192777,182875
OK,29,95,1054,29,2014-10-02T00:50:00,0,28193221,182875
OK,29,95,1054,29,2014-10-02T00:55:00,0,28193588,182875
OK,29,95,1054,29,2014-10-02T01:05:00,0,28194486,182875
OK,29,95,1054,29,2014-10-02T01:10:00,0,28194935,182875
OK,29,95,1054,29,2014-10-02T01:15:00,0,28195171,182875
OK,29,95,1054,29,2014-10-02T01:25:00,0,28196069,182875
OK,29,95,1054,29,2014-10-02T01:30:00,0,28196353,182875
OK,29,95,1054,29,2014-10-02T01:35:00,0,28196802,182875
OK,29,95,1054,29,2014-10-02T01:40:00,0,28197225,182875
OK,29,95,1054,29,2014-10-02T01:45:00,0,28197674,182875
OK,29,95,1054,29,2014-10-02T01:50:00,0,28198122,182875
OK,29,95,1054,29,2014-10-02T01:55:00,0,28198570,182875
OK,29,95,1054,29,2014-10-02T02:00:00,0,28199019,182875
OK,29,95,1054,29,2014-10-02T02:05:00,0,28199391,182875
OK,29,95,1054,29,2014-10-02T02:10:00,0,28199833,182875
OK,29,95,1054,29,2014-10-02T02:15:00,0,28200275,182875
OK,29,95,1054,29,2014-10-02T02:20:00,0,28200718,182875
OK,29,95,1054,29,2014-10-02T02:25:00,0,28201167,182875
OK,29,95,1054,29,2014-10-02T02:30:00,0,28201598,182875
OK,29,95,1054,29,2014-10-02T02:45:00,0,28202496,182875
OK,29,95,1054,29,2014-10-02T02:50:00,0,28202938,182875
OK,29,95,1054,29,2014-10-02T02:55:00,0,28203386,182875
OK,29,95,1054,29,2014-10-02T03:00:00,0,28203821,182875
OK,29,95,1054,29,2014-10-02T03:10:00,0,28204270,182875
OK,34,81,1054,34,2014-10-02T03:25:00,1,28204719,182875
OK,34,81,1054,34,2014-10-02T03:30:00,0,28205168,182875
OK,31,89,1054,31,2014-10-02T03:35:00,1,28205596,182875
OK,31,89,1054,31,2014-10-02T03:40:00,0,28206043,182875
OK,40,69,1054,40,2014-10-02T03:45:00,3,28206426,182875
OK,67,41,1054,67,2014-10-02T03:55:00,0,28207324,182875
OK,60,46,1054,60,2014-10-02T04:00:00,2,28207743,182875
OK,60,46,1054,60,2014-10-02T04:05:00,0,28208192,182875
OK,36,76,1054,36,2014-10-02T04:10:00,4,28208619,182875
OK,51,54,1054,51,2014-10-02T04:15:00,0,28209068,182875
OK,51,54,1054,51,2014-10-02T04:20:00,2,28209506,182875
OK,62,44,1054,62,2014-10-02T04:25:00,0,28209955,182875
OK,48,57,1054,48,2014-10-02T04:30:00,10,28210378,182875
OK,54,51,1054,54,2014-10-02T04:35:00,5,28210827,182875
OK,41,67,1054,41,2014-10-02T04:40:00,9,28211252,182875
OK,64,43,1054,64,2014-10-02T04:45:00,1,28211696,182875
OK,64,43,1054,64,2014-10-02T04:50:00,0,28212074,182875
OK,43,64,1054,43,2014-10-02T05:00:00,5,28212952,182875
OK,37,74,1054,37,2014-10-02T05:05:00,8,28213401,182875
OK,34,81,1054,34,2014-10-02T05:10:00,2,28213839,182875
OK,45,61,1054,45,2014-10-02T05:15:00,11,28214288,182875
OK,59,46,1054,59,2014-10-02T05:20:00,4,28214701,182875
OK,52,53,1054,52,2014-10-02T05:25:00,8,28215150,182875
OK,64,43,1054,64,2014-10-02T05:30:00,0,28215566,182875
OK,64,43,1054,64,2014-10-02T05:35:00,0,28216015,182875
OK,97,28,1054,97,2014-10-02T05:40:00,25,28216354,182875
OK,106,26,1054,106,2014-10-02T05:45:00,11,28216794,182875
OK,117,23,1054,117,2014-10-02T05:50:00,0,28217241,182875
OK,148,18,1054,148,2014-10-02T05:55:00,26,28217690,182875
OK,152,18,1054,152,2014-10-02T06:00:00,24,28218129,182875
OK,137,20,1054,137,2014-10-02T06:05:00,20,28218578,182875
OK,135,20,1054,135,2014-10-02T06:10:00,3,28218998,182875
OK,167,16,1054,167,2014-10-02T06:15:00,32,28219447,182875
OK,160,17,1054,160,2014-10-02T06:20:00,36,28219820,182875
OK,116,23,1054,116,2014-10-02T06:30:00,29,28220703,182875
OK,92,30,1054,92,2014-10-02T06:35:00,23,28221152,182875
OK,67,41,1054,67,2014-10-02T06:40:00,15,28221533,182875
OK,64,43,1054,64,2014-10-02T06:45:00,11,28221819,182875
OK,46,60,1054,46,2014-10-02T07:00:00,19,28222413,182875
OK,43,64,1054,43,2014-10-02T07:10:00,17,28223293,182875
OK,40,69,1054,40,2014-10-02T07:15:00,8,28223728,182875
OK,43,64,1054,43,2014-10-02T07:20:00,0,28224176,182875
OK,45,61,1054,45,2014-10-02T07:25:00,4,28224531,182875
OK,41,67,1054,41,2014-10-02T07:35:00,10,28225429,182875
OK,42,65,1054,42,2014-10-02T07:40:00,7,28225751,182875
OK,61,45,1054,61,2014-10-02T07:50:00,7,28226641,182875
OK,61,45,1054,61,2014-10-02T07:55:00,10,28227090,182875
OK,67,41,1054,67,2014-10-02T08:00:00,5,28227505,182875
OK,48,57,1054,48,2014-10-02T08:05:00,14,28227954,182875
OK,47,58,1054,47,2014-10-02T08:10:00,3,28228313,182875
OK,63,43,1054,63,2014-10-02T08:20:00,0,28229172,182875
OK,55,50,1054,55,2014-10-02T08:25:00,15,28229621,182875
OK,41,67,1054,41,2014-10-02T08:30:00,7,28229971,182875
OK,54,51,1054,54,2014-10-02T08:40:00,3,28230786,182875
OK,59,46,1054,59,2014-10-02T08:45:00,0,28231234,182875
OK,44,62,1054,44,2014-10-02T08:50:00,10,28231658,182875
OK,37,74,1054,37,2014-10-02T08:55:00,4,28232107,182875
OK,45,61,1054,45,2014-10-02T09:00:00,13,28232449,182875
OK,40,69,1054,40,2014-10-02T09:10:00,0,28232898,182875
OK,44,62,1054,44,2014-10-02T09:15:00,9,28233347,182875
OK,51,54,1054,51,2014-10-02T09:20:00,2,28233771,182875
OK,63,43,1054,63,2014-10-02T09:25:00,4,28234220,182875
OK,65,42,1054,65,2014-10-02T09:30:00,0,28234553,182875
OK,68,40,1054,68,2014-10-02T09:40:00,1,28235429,182875
OK,50,55,1054,50,2014-10-02T09:45:00,12,28235878,182875
OK,44,62,1054,44,2014-10-02T09:50:00,7,28236321,182875
OK,57,48,1054,57,2014-10-02T09:55:00,7,28236768,182875
OK,57,48,1054,57,2014-10-02T10:00:00,3,28237171,182875
OK,57,48,1054,57,2014-10-02T10:05:00,0,28237618,182875
OK,51,54,1054,51,2014-10-02T10:10:00,8,28238067,182875
OK,50,55,1054,50,2014-10-02T10:15:00,8,28238514,182875
OK,51,54,1054,51,2014-10-02T10:20:00,8,28238955,182875
OK,50,55,1054,50,2014-10-02T10:25:00,5,28239404,182875
OK,58,47,1054,58,2014-10-02T10:30:00,0,28239834,182875
OK,46,60,1054,46,2014-10-02T10:35:00,4,28240283,182875
OK,54,51,1054,54,2014-10-02T10:40:00,11,28240727,182875
OK,54,51,1054,54,2014-10-02T10:45:00,9,28241176,182875
OK,42,65,1054,42,2014-10-02T10:50:00,1,28241608,182875
OK,57,48,1054,57,2014-10-02T10:55:00,11,28242056,182875
OK,47,58,1054,47,2014-10-02T11:00:00,7,28242452,182875
OK,47,58,1054,47,2014-10-02T11:05:00,0,28242901,182875
OK,45,61,1054,45,2014-10-02T11:10:00,13,28243350,182875
OK,62,44,1054,62,2014-10-02T11:15:00,7,28243675,182875
OK,48,57,1054,48,2014-10-02T11:20:00,12,28244113,182875
OK,47,58,1054,47,2014-10-02T11:25:00,5,28244542,182875
OK,45,61,1054,45,2014-10-02T11:30:00,0,28244991,182875
OK,48,57,1054,48,2014-10-02T11:35:00,5,28245440,182875
OK,48,57,1054,48,2014-10-02T11:40:00,1,28245846,182875
OK,48,57,1054,48,2014-10-02T11:45:00,0,28246295,182875
OK,45,61,1054,45,2014-10-02T11:50:00,13,28246732,182875
OK,49,56,1054,49,2014-10-02T11:55:00,12,28247181,182875
OK,50,55,1054,50,2014-10-02T12:00:00,11,28247627,182875
OK,38,72,1054,38,2014-10-02T12:05:00,5,28248057,182875
OK,59,46,1054,59,2014-10-02T12:10:00,0,28248506,182875
OK,48,57,1054,48,2014-10-02T12:15:00,15,28248953,182875
OK,63,43,1054,63,2014-10-02T12:20:00,3,28249381,182875
OK,38,72,1054,38,2014-10-02T12:25:00,3,28249825,182875
OK,38,72,1054,38,2014-10-02T12:30:00,1,28250244,182875
OK,41,67,1054,41,2014-10-02T12:35:00,9,28250642,182875
OK,62,44,1054,62,2014-10-02T13:20:00,10,28251967,182875
OK,38,72,1054,38,2014-10-02T13:30:00,12,28252551,182875
OK,37,74,1054,37,2014-10-02T13:35:00,7,28252993,182875
OK,33,83,1054,33,2014-10-02T13:40:00,0,28253410,182875
OK,59,46,1054,59,2014-10-02T13:50:00,8,28254264,182875
OK,59,46,1054,59,2014-10-02T13:55:00,11,28254585,182875
OK,50,55,1054,50,2014-10-02T14:10:00,13,28255162,182875
OK,51,54,1054,51,2014-10-02T14:15:00,13,28255611,182875
OK,58,47,1054,58,2014-10-02T14:20:00,7,28256039,182875
OK,75,36,1054,75,2014-10-02T14:25:00,2,28256488,182875
OK,53,52,1054,53,2014-10-02T14:30:00,16,28256916,182875
OK,44,62,1054,44,2014-10-02T14:35:00,18,28257365,182875
OK,50,55,1054,50,2014-10-02T14:40:00,11,28257806,182875
OK,56,49,1054,56,2014-10-02T14:45:00,9,28258254,182875
OK,64,43,1054,64,2014-10-02T14:50:00,8,28258687,182875
OK,61,45,1054,61,2014-10-02T14:55:00,9,28259133,182875
OK,55,50,1054,55,2014-10-02T15:00:00,14,28259582,182875
OK,59,46,1054,59,2014-10-02T15:05:00,13,28260029,182875
OK,55,50,1054,55,2014-10-02T15:10:00,15,28260462,182875
OK,58,47,1054,58,2014-10-02T15:15:00,16,28260911,182875
OK,58,47,1054,58,2014-10-02T15:20:00,7,28261351,182875
OK,49,56,1054,49,2014-10-02T15:25:00,9,28261733,182875
OK,48,57,1054,48,2014-10-02T15:40:00,6,28263056,182875
OK,43,64,1054,43,2014-10-02T15:45:00,13,28263494,182875
OK,45,61,1054,45,2014-10-02T15:50:00,4,28263935,182875
OK,43,64,1054,43,2014-10-02T15:55:00,0,28264337,182875
OK,49,56,1054,49,2014-10-02T16:00:00,16,28264786,182875
OK,50,55,1054,50,2014-10-02T16:05:00,14,28265224,182875
OK,45,61,1054,45,2014-10-02T16:10:00,6,28265664,182875
OK,42,65,1054,42,2014-10-02T16:15:00,0,28266060,182875
OK,45,61,1054,45,2014-10-02T16:20:00,10,28266509,182875
OK,46,60,1054,46,2014-10-02T16:25:00,7,28266958,182875
OK,44,62,1054,44,2014-10-02T16:30:00,6,28267281,182875
OK,59,46,1054,59,2014-10-02T16:40:00,7,28268179,182875
OK,64,43,1054,64,2014-10-02T16:45:00,6,28268621,182875
OK,69,40,1054,69,2014-10-02T16:50:00,0,28269070,182875
OK,43,64,1054,43,2014-10-02T16:55:00,6,28269519,182875
OK,40,69,1054,40,2014-10-02T17:00:00,3,28269954,182875
OK,44,62,1054,44,2014-10-02T17:05:00,2,28270403,182875
OK,42,65,1054,42,2014-10-02T17:10:00,1,28270837,182875
OK,42,65,1054,42,2014-10-02T17:15:00,0,28271286,182875